Regional Weather Roundup
Issued by NWS

Home | Current Version | Previous Version | Graphics & Text | Print | Product List | Glossary On
Versions: 1 2 3 4 5 6 7 8 9 10 11 12 13 14 15 16 17 18 19 20 21 22 23 24 25 26 27 28 29 30 31 32 33 34 35 36 37 38 39 40 41 42 43 44 45 46 47 48 49 50
000
ASUS43 KFSD 200002
RWRSD

WEATHER ROUNDUP FOR SOUTH DAKOTA
NATIONAL WEATHER SERVICE SIOUX FALLS SD
700 PM CDT SUN OCT 19 2014

NOTE: "FAIR" INDICATES FEW OR NO CLOUDS BELOW 12,000 FEET WITH NO
SIGNIFICANT WEATHER AND/OR OBSTRUCTIONS TO VISIBILITY.


SDZ001>005-009-010-012>017-200100-
NORTHWEST AND NORTH CENTRAL SOUTH DAKOTA

CITY           SKY/WX    TMP DP  RH WIND       PRES   REMARKS
FAITH            N/A     63  37  38 N6        30.01R
MOBRIDGE       CLEAR     61  41  47 N7        29.94R
$$

SDZ012>016-024>037-041>051-057-063-072>074-200100-
SOUTHWEST AND SOUTH CENTRAL SOUTH DAKOTA

CITY           SKY/WX    TMP DP  RH WIND       PRES   REMARKS
RAPID CTY ARPT CLEAR     63  41  44 CALM      30.05R
PIERRE         CLEAR     60  37  42 NW9       29.95R
CUSTER         CLEAR     57  37  47 E6        30.14R
ELLSWORTH AFB  CLEAR     67  42  39 N2        30.05R
PHILIP         CLEAR     64  40  41 N9        30.00R
PINE RIDGE     CLEAR     64  40  41 N7        30.05R
SPEARFISH      FAIR      57  41  54 S5        30.09R
WINNER         FAIR      67  36  31 NW8       29.97R
$$

SDZ004>011-016>023-039-040-200100-
NORTHEAST SOUTH DAKOTA

CITY           SKY/WX    TMP DP  RH WIND       PRES   REMARKS
ABERDEEN       CLEAR     60  39  45 N8        29.92R
WATERTOWN      CLEAR     61  38  42 N9        29.90R
SISSETON         N/A     62  39  42 N9        29.88R
$$

SDZ017-020-022-023-036>040-048>070-200100-
SOUTHEAST SOUTH DAKOTA

CITY           SKY/WX    TMP DP  RH WIND       PRES   REMARKS
SIOUX FALLS    CLEAR     61  39  44 NW6       29.90R
HURON          CLEAR     61  39  44 NW8       29.91R
CHAMBERLAIN    CLEAR     64  37  38 NW7       29.95R
MITCHELL       CLEAR     63  39  41 NW8       29.91R
YANKTON        CLEAR     72  41  33 W6        29.90S
$$

ABBREVIATIONS USED IN REMARKS
   TC - TEMPERATURE IN CELSIUS
  WCI - WIND CHILL INDEX
   HX - HEAT INDEX
  VSB - VISIBILITY



USA.gov is the U.S. government's official web portal to all federal, state and local government web resources and services.